Weather in Yeongcheon

South Korea     35°58′15″N   128°56′18″E
temp.,
°C
wind,
m/s
gust,
m/s
humid.,
%
clouds,
%
prec.,
mm/h
press.,
hPa
HPBL,
m
19 may, wed
wed1900:00+14w1197100 0.0 101113
03:00+13w2297100 0.0 101138
06:00+13w2297100 0.0 101255
09:00+21w23494 0.0 1012579
12:00+26wnw22351 0.0 10111605
15:00+27wnw222999 0.0 10102285
18:00+23wnw1152100 0.0 101013
21:00+16ne1171100 0.0 101311
20 may, thu
thu2000:00+16wsw1176100 0.0 101311
03:00+15nnw1176100 0.0 101113
06:00+16e2275100 0.0 101037
09:00+16se1176100 0.0 101140
12:00+15e21080100 0.1 1010741
15:00+14ene3994100 1.1 1008825
18:00+13ene31197100 1.2 1006846
21:00+13ene3997100 1.4 1005657
21 may, fri
fri2100:00+13nnw0198100 0.3 100473
03:00+13wnw1298100 0.3 100378
06:00+13wsw1198100 0.3 100480
09:00+15sw1293100 0.4 1005344
12:00+18w2478100 0.6 1004837
15:00+19nw356857 1.7 1004939
18:00+16e118299 0.9 100526
21:00+13ese1197100 1.1 100850
22 may, sat
sat2200:00+13wsw119599 0.1 100831
03:00+11wsw2396100 0.1 100965
06:00+12w23949 0.1 1010112
09:00+18wnw48600 0.1 1010910
12:00+23wnw58470 0.0 10091397
15:00+25wnw69467 0.0 10081898
18:00+23nw37590 0.0 1009633
21:00+16w2284100 0.0 101125
23 may, sun
sun2300:00+15w248878 0.0 101274
03:00+14w23875 0.0 101246
06:00+13w238583 0.0 101358
09:00+22wnw244971 0.0 1013494
12:00+27w33300 0.0 10121097
15:00+29wsw332589 0.0 10111581
18:00+26wsw1147100 0.0 101111
21:00+19w1162100 0.0 101211